User: anonymous   Login
Location: Hale Hill Observatory
(39.3806°N, 86.8431°W)
Time: 22:04:02
(UTC-04:00)
Language:

Cosmos 990 Rocket - Orbit

View from above orbital plane
View from above orbital plane
View from above satellite
View from above satellite

Ground track
Ground track

The orbit data is extracted from the following two-line orbital elements,

1 10677U 78019B   16148.53111167  .00000014  00000-0  12960-4 0  9998
2 10677  74.0379 293.9062 0014338 103.6965 256.5787 14.39962728  6987
Epoch (UTC): 27 May 2016 12:44:48
Eccentricity: 0.0014338
inclination: 74.0379°
perigee height: 748 km
apogee height: 769 km
right ascension of ascending node: 293.9062°
argument of perigee: 103.6965°
revolutions per day: 14.39962728
mean anomaly at epoch: 256.5787°
orbit number at epoch: 698

The dashed part of the orbit path shows where the satellite is in the earth's shadow,  

DLR